Date String (YYYY-MM-DD hh:mm:ss) UTC,Instrument flags,absolute air pressure of the measurement (hPa),sample flow rate (lpm),inlet stack bypass flow (lpm),air temperature of the measurement (°C),ambient temperature measured by the external sensor (°C),aerosol sample conditioner tube jacket temperature (°C),OPC LED temperature (°C),internal box temperature (°C),relative humidity of the measurement (%),span deviation,mass concentration of particles derived from Lorenz-Mie calculation of OPC scattering (μg/m³),mass concentration of particles derived from Lorenz-Mie calculation of OPC scattering (μg/m³),mass concentration of particles derived from Lorenz-Mie calculation of OPC scattering (μg/m³)
DateTimeUTC,F1_M11,P_M11,Q1_M11,Q2_M11,T1_M11,T2_M11,T3_M11,T4_M11,T5_M11,U1_M11,ZSPAN_M11,X0_M11,X2_M11,X1_M11
2023-06-12 05:00:00,SystemResetWarning,0832.5,5.00,000.00,030.3,028.6,000.0,038.8,031.7,29.5,0001.9,0010.95,0006.07,0005.58
2023-06-12 05:01:00,SystemResetWarning,0832.4,5.00,000.00,030.2,028.6,000.0,038.8,031.7,29.4,0001.9,0010.82,0006.00,0005.51
2023-06-12 05:02:00,SystemResetWarning,0832.4,4.99,000.00,030.2,028.6,000.0,038.8,031.7,29.3,0002.2,0010.49,0005.95,0005.45
2023-06-12 05:03:00,SystemResetWarning,0832.4,5.00,000.00,030.2,028.6,000.0,038.8,031.7,29.3,0002.2,0010.32,0005.92,0005.41
2023-06-12 05:04:00,SystemResetWarning,0832.4,4.99,000.00,030.3,028.6,000.0,038.8,031.7,29.3,0002.1,0010.07,0005.89,0005.37
2023-06-12 05:05:00,SystemResetWarning,0832.4,5.00,000.00,030.2,028.6,000.0,038.8,031.7,29.2,0002.2,0009.74,0005.85,0005.33
2023-06-12 05:06:00,SystemResetWarning,0832.3,5.00,000.00,030.2,028.6,000.0,038.8,031.7,29.2,0002.2,0009.70,0005.83,0005.31
2023-06-12 05:07:00,SystemResetWarning,0832.3,5.01,000.00,030.2,028.6,000.0,038.8,031.7,29.2,0001.9,0009.68,0005.79,0005.26
2023-06-12 05:08:00,SystemResetWarning,0832.3,5.01,000.00,030.2,028.7,000.0,038.8,031.7,29.1,0001.7,0009.51,0005.69,0005.19
2023-06-12 05:09:00,SystemResetWarning,0832.3,5.00,000.00,030.2,028.7,000.0,038.8,031.7,29.2,0001.6,0009.36,0005.64,0005.15
2023-06-12 05:10:00,SystemResetWarning,0832.3,4.99,000.00,030.2,028.7,000.0,038.8,031.7,29.2,0001.3,0009.77,0005.60,0005.10
2023-06-12 05:11:00,SystemResetWarning,0832.3,4.99,000.00,030.2,028.7,000.0,038.8,031.7,29.3,0001.3,0010.04,0005.59,0005.09
2023-06-12 05:12:00,SystemResetWarning,0832.3,5.00,000.00,030.3,028.7,000.0,038.8,031.7,29.2,0001.6,0010.21,0005.60,0005.08
2023-06-12 05:13:00,SystemResetWarning,0832.3,5.00,000.00,030.3,028.7,000.0,038.8,031.7,29.2,0001.2,0010.25,0005.57,0005.06
2023-06-12 05:14:00,SystemResetWarning,0832.3,5.00,000.00,030.3,028.7,000.0,038.8,031.7,29.2,0001.4,0010.26,0005.52,0005.03
2023-06-12 05:15:00,SystemResetWarning,0832.3,5.00,000.00,030.3,028.7,000.0,038.8,031.7,29.1,0001.5,0010.18,0005.50,0005.02
2023-06-12 05:16:00,SystemResetWarning,0832.3,4.99,000.00,030.3,028.7,000.0,038.8,031.7,29.1,0001.6,0010.13,0005.49,0005.01
2023-06-12 05:17:00,SystemResetWarning,0832.3,5.00,000.00,030.3,028.7,000.0,038.8,031.7,29.1,0001.8,0010.24,0005.48,0005.01
2023-06-12 05:18:00,SystemResetWarning,0832.3,5.01,000.00,030.3,028.7,000.0,038.8,031.7,29.1,0002.1,0010.33,0005.47,0004.99
2023-06-12 05:19:00,SystemResetWarning,0832.3,5.00,000.00,030.3,028.7,000.0,038.8,031.7,29.1,0002.5,0010.38,0005.48,0004.97
2023-06-12 05:20:00,SystemResetWarning,0832.3,5.00,000.00,030.3,028.7,000.0,038.8,031.7,29.2,0002.5,0010.47,0005.48,0004.95
2023-06-12 05:21:00,SystemResetWarning,0832.3,5.00,000.00,030.3,028.7,000.0,038.8,031.7,29.1,0002.6,0010.22,0005.46,0004.94
2023-06-12 05:22:00,SystemResetWarning,0832.3,5.00,000.00,030.3,028.7,000.0,038.8,031.7,29.1,0002.9,0009.46,0005.43,0004.91
2023-06-12 05:23:00,SystemResetWarning,0832.3,5.00,000.00,030.3,028.7,000.0,038.8,031.7,29.1,0002.7,0009.29,0005.41,0004.88
2023-06-12 05:24:00,SystemResetWarning,0832.3,5.00,000.00,030.3,028.7,000.0,038.8,031.8,29.0,0003.0,0009.24,0005.39,0004.86
2023-06-12 05:25:00,SystemResetWarning,0832.3,5.00,000.00,030.3,028.7,000.0,038.8,031.7,29.1,0003.2,0009.07,0005.38,0004.85
2023-06-12 05:26:00,SystemResetWarning,0832.3,5.00,000.00,030.3,028.7,000.0,038.8,031.7,29.1,0003.2,0009.11,0005.40,0004.84
2023-06-12 05:27:00,SystemResetWarning,0832.3,5.00,000.00,030.3,028.7,000.0,038.8,031.7,29.1,0003.3,0009.14,0005.39,0004.83
2023-06-12 05:28:00,SystemResetWarning,0832.4,5.00,000.00,030.3,028.7,000.0,038.8,031.7,29.1,0003.1,0009.06,0005.34,0004.79
2023-06-12 05:29:00,SystemResetWarning,0832.4,5.00,000.00,030.3,028.7,000.0,038.8,031.8,29.1,0002.9,0008.83,0005.30,0004.76
2023-06-12 05:30:00,SystemResetWarning,0832.4,5.00,000.00,030.3,028.7,000.0,038.8,031.7,29.1,0002.7,0008.69,0005.24,0004.73
2023-06-12 05:31:00,SystemResetWarning,0832.5,5.00,000.00,030.3,028.7,000.0,038.8,031.7,29.2,0002.5,0008.60,0005.20,0004.71
2023-06-12 05:32:00,SystemResetWarning,0832.4,5.00,000.00,030.3,028.7,000.0,038.8,031.8,29.2,0002.6,0008.48,0005.15,0004.68
2023-06-12 05:33:00,SystemResetWarning,0832.5,4.99,000.00,030.3,028.7,000.0,038.8,031.7,29.3,0002.5,0008.51,0005.15,0004.66
2023-06-12 05:34:00,SystemResetWarning,0832.5,5.00,000.00,030.3,028.7,000.0,038.9,031.7,29.2,0002.4,0008.86,0005.13,0004.64
2023-06-12 05:35:00,SystemResetWarning,0832.5,5.01,000.00,030.3,028.7,000.0,038.9,031.8,29.2,0002.5,0008.79,0005.09,0004.62
2023-06-12 05:36:00,SystemResetWarning,0832.5,5.00,000.00,030.3,028.7,000.0,038.9,031.8,29.2,0002.1,0008.75,0005.06,0004.59
2023-06-12 05:37:00,SystemResetWarning,0832.4,5.00,000.00,030.3,028.7,000.0,038.9,031.8,29.1,0001.9,0008.59,0004.99,0004.56
2023-06-12 05:38:00,SystemResetWarning,0832.4,5.00,000.00,030.3,028.7,000.0,038.9,031.7,29.1,0001.8,0008.44,0004.92,0004.51
2023-06-12 05:39:00,SystemResetWarning,0832.4,5.00,000.00,030.3,028.7,000.0,038.9,031.8,29.1,0002.1,0008.36,0004.88,0004.48
2023-06-12 05:40:00,SystemResetWarning,0832.3,5.00,000.00,030.3,028.7,000.0,038.9,031.8,29.2,0002.1,0008.46,0004.83,0004.43
2023-06-12 05:41:00,SystemResetWarning,0832.3,5.00,000.00,030.3,028.7,000.0,038.9,031.8,29.2,0002.1,0008.74,0004.81,0004.40
2023-06-12 05:42:00,SystemResetWarning,0832.3,4.99,000.00,030.4,028.7,000.0,038.9,031.8,29.2,0002.3,0009.33,0004.77,0004.38
2023-06-12 05:43:00,SystemResetWarning,0832.3,4.99,000.00,030.3,028.7,000.0,038.9,031.8,29.3,0002.2,0009.45,0004.78,0004.36
2023-06-12 05:44:00,SystemResetWarning,0832.3,5.00,000.00,030.4,028.7,000.0,038.9,031.8,29.3,0002.4,0009.53,0004.78,0004.36
2023-06-12 05:45:00,SystemResetWarning,0832.3,5.01,000.00,030.4,028.7,000.0,038.9,031.8,29.4,0002.3,0009.27,0004.73,0004.34
2023-06-12 05:46:00,SystemResetWarning,0832.3,5.00,000.00,030.4,028.7,000.0,038.9,031.8,29.5,0002.0,0009.95,0004.75,0004.33
2023-06-12 05:47:00,SystemResetWarning,0832.2,5.00,000.00,030.3,028.7,000.0,038.9,031.7,29.5,0001.9,0010.10,0004.80,0004.33
2023-06-12 05:48:00,SystemResetWarning,0832.2,5.00,000.00,030.3,028.7,000.0,038.9,031.7,29.5,0001.6,0010.27,0004.82,0004.32
2023-06-12 05:49:00,SystemResetWarning,0832.2,5.00,000.00,030.3,028.7,000.0,038.9,031.7,29.5,0001.5,0010.39,0004.86,0004.34
2023-06-12 05:50:00,SystemResetWarning,0832.2,5.00,000.00,030.3,028.7,000.0,038.9,031.7,29.5,0001.2,0010.54,0004.91,0004.35
2023-06-12 05:51:00,SystemResetWarning,0832.2,5.00,000.00,030.3,028.7,000.0,038.9,031.7,29.6,0001.0,0010.45,0004.95,0004.37
2023-06-12 05:52:00,SystemResetWarning,0832.3,4.99,000.00,030.3,028.7,000.0,038.9,031.7,29.6,0000.8,0010.15,0004.94,0004.38
2023-06-12 05:53:00,SystemResetWarning,0832.3,5.00,000.00,030.3,028.7,000.0,038.9,031.7,29.5,0000.8,0009.47,0004.94,0004.36
2023-06-12 05:54:00,SystemResetWarning,0832.4,5.00,000.00,030.3,028.7,000.0,038.9,031.7,29.3,0000.8,0009.55,0004.80,0004.26
2023-06-12 05:55:00,SystemResetWarning,0832.5,5.00,000.00,030.3,028.7,000.0,038.9,031.7,29.0,0000.5,0009.68,0004.65,0004.14
2023-06-12 05:56:00,SystemResetWarning,0832.5,5.00,000.00,030.3,028.7,000.0,038.9,031.7,28.9,0000.5,0009.22,0004.47,0003.99
2023-06-12 05:57:00,SystemResetWarning,0832.5,5.00,000.00,030.3,028.7,000.0,038.9,031.7,28.8,0000.6,0008.39,0004.31,0003.84
2023-06-12 05:58:00,SystemResetWarning,0832.5,4.99,000.00,030.3,028.7,000.0,038.9,031.7,28.7,0000.7,0008.06,0004.16,0003.73
2023-06-12 05:59:00,SystemResetWarning,0832.5,5.01,000.00,030.3,028.7,000.0,038.9,031.8,28.7,0001.1,0007.75,0004.01,0003.63
